Location: K�benhavn
(55.6670°N, 12.5830°E)
Time: 20:20:08
(UTC+01:00)

ISS - Visible Passes

Search period start: 31 October 2020 00:00
Search period end: 10 November 2020 00:00
Orbit: 417 x 420 km, 51.6° (Epoch: 31 October)

Date Brightness Start Highest point End Pass type
(mag) Time Alt. Az. Time Alt. Az. Time Alt. Az.
31 Oct -1.8 04:24:55 26° SE 04:24:55 26° SE 04:27:02 10° E visible
31 Oct -2.9 05:57:52 14° WSW 06:00:26 42° S 06:03:38 10° ESE visible
01 Nov -0.4 03:39:07 10° ESE 03:39:07 10° ESE 03:39:13 10° E visible
01 Nov -3.0 05:12:04 36° SSW 05:12:44 41° S 05:15:57 10° ESE visible
02 Nov -1.9 04:26:15 28° SE 04:26:15 28° SE 04:28:13 10° ESE visible
02 Nov -2.7 05:59:12 16° WSW 06:01:28 36° SSW 06:04:36 10° SE visible
03 Nov -0.3 03:40:25 10° E 03:40:25 10° E 03:40:28 10° E visible
03 Nov -3.0 05:13:22 38° SSW 05:13:47 40° S 05:16:58 10° ESE visible
04 Nov -1.8 04:27:33 25° SE 04:27:33 25° SE 04:29:17 10° ESE visible
04 Nov -2.3 06:00:30 16° WSW 06:02:26 26° SSW 06:05:18 10° SE visible
05 Nov -2.7 05:14:42 31° SSW 05:14:46 31° SSW 05:17:48 10° SE visible
06 Nov -1.4 04:28:55 20° SE 04:28:55 20° SE 04:30:12 10° ESE visible
06 Nov -1.7 06:01:52 13° WSW 06:03:16 16° SSW 06:05:28 10° S visible
07 Nov -1.9 05:16:09 20° SSW 05:16:09 20° SSW 05:18:16 10° SSE visible
08 Nov -0.9 04:30:28 12° SSE 04:30:28 12° SSE 04:30:52 10° SE visible
09 Nov -1.1 05:17:49 10° S 05:17:49 10° S 05:17:53 10° S visible
